Regional Weather Roundup
Issued by NWS Nashville, TN

Home | Current Version | Previous Version | Text Only | Print | Product List | Glossary On
Versions: 1 2 3 4 5 6 7 8 9 10 11 12 13 14 15 16 17 18 19 20 21 22 23 24 25 26 27 28 29 30 31 32 33 34 35 36 37 38 39 40 41 42 43 44 45 46 47 48 49 50
733
ASUS44 KOHX 251310
RWROHX
MIDDLE TENNESSEE HOURLY WEATHER ROUNDUP
NATIONAL WEATHER SERVICE NASHVILLE TN
800 AM CDT WED MAY 25 2016

NOTE: "FAIR" INDICATES FEW OR NO CLOUDS BELOW 12,000 FEET WITH
NO SIGNIFICANT WEATHER AND/OR OBSTRUCTIONS TO VISIBILITY.

* THESE REPORTS ARE NOT UNDER NWS QUALITY CONTROL AND MAY NOT
  REPORT WEATHER SUCH AS PRECIPITATION AND FOG.


TNZ005>011-023>034-057-059-062>066-078-080-251400
...NORTHERN MIDDLE TENNESSEE...

CITY           SKY/WX    TMP DP  RH WIND       PRES   REMARKS
CLARKSVILLE    CLOUDY    69  63  81 SW6       30.13R
CROSSVILLE     CLOUDY    69  56  62 CALM      30.25R
NASHVILLE      CLOUDY    71  59  65 S8        30.15R
SPARTA         MOSUNNY   68  59  73 VRB3      30.20R
$$
TNZ056-058-060-061-075>077-079-093>097-251400
...SOUTHERN MIDDLE TENNESSEE...

CITY           SKY/WX    TMP DP  RH WIND       PRES   REMARKS
COLUMBIA       PTSUNNY   70  70 100 S5        30.15R
FAYETTEVILLE   CLOUDY    68  57  68 S5        30.20R
MCMINNVILLE    PTSUNNY   64  63  94 CALM      30.21R
SHELBYVILLE    PTSUNNY   72  61  68 S7        30.20R
TULLAHOMA      MOSUNNY   64  63  94 CALM      30.22R
WINCHESTER     MOSUNNY   68  59  73 SE3       30.22R
$$


...KEY TO REMARKS...
VSB - VISIBILITY IN MILES
WCI - WIND CHILL INDEX
HX  - HEAT INDEX





USA.gov is the U.S. government's official web portal to all federal, state and local government web resources and services.